AirNav   Bose Proflight and A20 aviation headeets
 
 753 users online  

PANA Napakiak Airport
Napakiak, Alaska, USA

GOING TO NAPAKIAK?


FAA INFORMATION EFFECTIVE 31 JANUARY 2019

Location

FAA Identifier: WNA
Lat/Long: 60-41-25.2000N / 161-58-42.6000W
60-41.420000N / 161-58.710000W
60.6903333 / -161.9785000
(estimated)
Elevation: 16.9 ft. / 5 m (estimated)
Variation: 14E (2010)
Time zone: UTC -9 (UTC -8 during Daylight Saving Time)
Zip code: 99634

Airport Operations

Airport use: Open to the public
Activation date: 09/1976
Control tower: no
ARTCC: ANCHORAGE CENTER
FSS: KENAI FLIGHT SERVICE STATION [907-283-8469]
NOTAMs facility: WNA (NOTAM-D service available)
Attendance: UNATNDD
Wind indicator: lighted
Segmented circle: yes
SEGMENT CIRCLE PARTIALLY OBSCURED BY BRUSH.
Lights: ACTVT MIRL RY 16/34; REIL & PAPI RYS 16 & 34 - CTAF.
Beacon: white-green (lighted land airport)
ACTVT ROTG BCN - CTAF.

Airport Communications

CTAF: 122.9
WX AWOS-3P: 121.425 (907-868-7317)
WX ASOS at BET (7 nm NE): 135.45 (907-543-5475)
WX AWOS-3P at KWT (17 nm E): 120.000 (907-868-7313)
WX AWOS-3P at 16A (19 nm NW): 121.550 (907-868-7319)
  • APCH/DEP SVC PRVDD BY ANCHORAGE ARTCC IN FREQS 125.2/ 372.0 (BETHEL RCAG).

Nearby radio navigation aids

VOR radial/distance  VOR name  Freq  Var
BETr205/7.3BETHEL VORTAC114.1014E

 
NDB name  Hdg/Dist  Freq  Var  ID
OSCARVILLE196/6.825111EOSE --- ... .

Airport Services

Airframe service: NONE
Powerplant service: NONE
Bottled oxygen: NONE
Bulk oxygen: NONE

Runway Information

Runway 16/34

Dimensions: 3248 x 60 ft. / 990 x 18 m
Surface: gravel, in fair condition
RWY 16/34 SOUTH 1500 FT 6 IN DIPS.
RUTS AT END OF RYS DUE TO ACFT TURNING AROUND. ROUGH SPOTS IN PARKING AREA.
Runway edge lights: medium intensity
RY LGTS OBSCURED BY BRUSH.
Runway edge markings: RYS 16 & 34 NSTD MKGS: RY MKD WITH LIGHTS, CONES, AND THLD PANELS.
RUNWAY 16  RUNWAY 34
Latitude: 60-41.685607N60-41.154065N
Longitude: 161-58.750667W161-58.668015W
Elevation: 16.0 ft.15.6 ft.
Traffic pattern: leftleft
Runway heading: 161 magnetic, 175 true341 magnetic, 355 true
Markings: NSTDNSTD
Visual slope indicator: 4-light PAPI on left (3.00 degrees glide path)4-light PAPI on left (3.00 degrees glide path)
Runway end identifier lights: yesyes
Touchdown point: yes, no lightsyes, no lights
Obstructions: 7 ft. brush, 100 ft. left and right of centerline12 ft. brush, 201 ft. left of centerline

Airport Ownership and Management from official FAA records

Ownership: Publicly-owned
Owner: ALASKA DOT&PF CENTRAL REGION
PO BOX 196900
ANCHORAGE, AK 99519-6900
Phone 907-266-1735
Manager: LAWRENCE DAVIS
PO BOX 505
BETHEL, AK 99559
Phone (907) 543-2498

Airport Operational Statistics

Aircraft operations: avg 23/week *
100% air taxi
* for 12-month period ending 31 December 2016

Additional Remarks

SPB OPER IN RIVER; JOHNSON SLOUGH UNUSABLE.
DEEP RUTS IN THE SOUTH SIDE OF RAMP.
RY COND NOT MONITORED; RCMD VISUAL INSPECTION PRIOR TO USING.
WINDSOCK UNRELIABLE.
WX CAMERA AVBL ON INTERNET AT HTTP://AVCAMS.FAA.GOV
NUMEROUS ARPTS INVOF WNA.
COLD TEMPERATURE RESTRICTED AIRPORT. ALTITUDE CORRECTION REQUIRED AT OR BELOW -37C.

Instrument Procedures

NOTE: All procedures below are presented as PDF files. If you need a reader for these files, you should download the free Adobe Reader.

NOT FOR NAVIGATION. Please procure official charts for flight.
FAA instrument procedures published for use from 31 January 2019 at 0901Z to 28 February 2019 at 0900Z.

 
IAPs - Instrument Approach Procedures
RNAV (GPS) RWY 16   download (210KB)
RNAV (GPS) RWY 34   download (201KB)
NOTE: Special Take-Off Minimums/Departure Procedures apply   download (151KB)

Other nearby airports with instrument procedures:

PAPK - Napaskiak Airport (6 nm E)
PABE - Bethel Airport (7 nm NE)
PFKW - Kwethluk Airport (17 nm E)
PFKA - Kasigluk Airport (19 nm NW)
PFAK - Akiak Airport (25 nm NE)
 
Loc | Ops | Rwys | IFR | FBO | Links
Com | Nav | Svcs | Stats | Notes

Crowley
 
Area around PANA (Napakiak Airport)
 
Road maps at: MapQuest Bing Google
 
Aerial photo
No photo
 
Sectional chart

 
Airport distance calculator
Flying to Napakiak Airport? Find the distance to fly.

From to PANA

Sunrise and sunset
Times for 18-Feb-2019
 Local
(UTC-9)
 Zulu
(UTC)
Morning civil twilight08:3617:36
Sunrise09:2018:20
Sunset18:4303:43
Evening civil twilight19:2804:28

Current date and time
Zulu (UTC)  19-Feb-2019 03:55:26
Local (UTC-9)  18-Feb-2019 18:55:26
 
METAR
PANA 190256Z AUTO 33011G20KT 10SM FEW007 M06/M07 A2991 RMK AO2 SLP127 T10561072 51043 FZRANO
PABE 
8nm NE 
190253Z 32016KT 10SM SCT006 M06/M07 A2990 RMK AO2 PK WND 33027/0212 SLP128 T10561072 53058 $
PFKW 
17nm E 
190323Z AUTO 32010KT 10SM BKN007 M05/M07 A2991 RMK AO2 FZRANO
PPIT 
19nm NW 
190256Z AUTO 33023G27KT 7SM OVC008 M06/M07 A2992 RMK AO2 PK WND 33027/0253 SLP130 T10611067 53039 FZRANO TSNO
TAF
PABE 
8nm NE 
182113Z 1821/1918 01015KT 6SM -SN BR SCT005 BKN060 TEMPO 1821/1824 1SM -SN BR BKN005 BKN015 FM190000 36015G25KT 4SM BR SCT007 OVC015 FM190400 30015KT 1 1/2SM BR BKN015 FM190900 27011KT 4SM BR SCT005 BKN250 FM191200 VRB03KT 1SM BR BKN005
NOTAMs
Click for the latest NOTAMs
NOTAMs are issued by the DoD/FAA and will open in a separate window not controlled by AirNav.

 

 
 

Would you like to see your business listed on this page?

 If your business provides an interesting product or service to pilots, flight crews, aircraft, or users of the Napakiak Airport, you should consider listing it here.  To start the listing process, click on the button below
 
Add a business
 

Other Pages about Napakiak Airport

Update a link
 
Copyright © AirNav, LLC. All rights reserved. Privacy Policy  Contact